TOURFACTS.DK  
Stats and Facts from Tour de France.

Tour de France 2018 starts in 261 days
  Riders   Stages   Teams   Summits   Yearly  


 
Search by year

 2017 - St. 21:  14824 starters.
  5131 different riders.
  634 teams.
  2232 stages.
  454 restdays.
  439589.60 km.
  5653 abandonnees.


Top 3
Christopher Froome86:20:55
Rigoberto Uran86:21:49
Romain Bardet86:23:15
Warren Barguil169 pt.
Primoz Roglic80 pt.
Thomas De Gendt64 pt.
Michael Matthews359 pt.
André Greipel234 pt.
Edvald Boasson Hagen220 pt.
Simon Yates86:27:09
Louis Meintjes86:29:15
Emanuel Buchmann86:54:16
Facts from Tour de France 2013
  |   Stages.  |   Stage winners.  |   Days in yellow  |   Average speed.  |   Route.  |   Teams.  |   All riders.  |   Rookies.  |   Withdrawls.  |  

  |   GC.  |   Polka  |   Green  |   White  |   Summits. (In tour)  |   Summits. (Points)  |   Miscellaneous.  |  

Stage 13 on 12 - 07 - 2013
         Owning:    Christopher Froome    
Pick a stage:  1 2 3 4 5 6 7 8 9 10 11 12 13 14 15 16 17 18 19 20 21
  ToursSaint-Amand-Montrond | Dist: 173.00 km.
Cat: 4Côte de CrotzFRAPierre Rolland
1 point
 

Average speed for all riders in stage:  45,648 km./hr.
    Place:Name:Team:Time:Km/h:
IOMMark CavendishBELOmega Pharma – Quick Step03:40:08  +  00:00:00=47,153 
SVKPeter SaganITACannondale Pro Cycling03:40:08  +  00:00:00=47,153 
NEDBauke MollemaNLDBelkin Pro Cycling03:40:08  +  00:00:00=47,153 
4 SUIJakob FuglsangKAZAstana Pro Team03:40:08  +  00:00:00=47,153 
5 NEDNiki TerpstraBELOmega Pharma – Quick Step03:40:08  +  00:00:00=47,153 
6 CZERoman KreuzigerDNKTeam Saxo-Tinkoff03:40:08  +  00:00:00=47,153 
7 ESPAlberto ContadorDNKTeam Saxo-Tinkoff03:40:08  +  00:00:00=47,153 
8 NEDLaurens ten DamNLDBelkin Pro Cycling03:40:08  +  00:00:00=47,153 
9 FRASylvain ChavanelBELOmega Pharma – Quick Step03:40:14  +  00:00:06=47,132 
10 AUSMichael RogersDNKTeam Saxo-Tinkoff03:40:17  +  00:00:09=47,121 
11 FRANicolas RocheDNKTeam Saxo-Tinkoff03:40:19  +  00:00:11=47,114 
12 ITADaniele BennatiDNKTeam Saxo-Tinkoff03:40:25  +  00:00:17=47,093 
13 POLMaciej BodnarITACannondale Pro Cycling03:40:27  +  00:00:19=47,086 
14 ITAMatteo TosattoDNKTeam Saxo-Tinkoff03:41:01  +  00:00:53=46,965 
15 GERAndré GreipelBELLotto-Belisol Team03:41:17  +  00:01:09=46,908 
16 POLMichal KwiatkowskiBELOmega Pharma – Quick Step03:41:17  +  00:01:09=46,908 
17 FRAWilliam BonnetFRAFDJ.fr03:41:17  +  00:01:09=46,908 
18 FRAAnthony DelaplaceFRASojasun03:41:17  +  00:01:09=46,908 
19 ENGDaniel MartinUSAGarmin Sharp03:41:17  +  00:01:09=46,908 
20 GERJohn DegenkolbNLDArgos–Shimano03:41:17  +  00:01:09=46,908 
21 AUSCadel EvansUSABMC Racing Team03:41:17  +  00:01:09=46,908 
22 FRAJean-Christophe PeraudFRAAg2r La Mondiale03:41:17  +  00:01:09=46,908 
23 LUXAndy SchleckLUXRadioShack Leopard03:41:17  +  00:01:09=46,908 
24 NEDKoen De KortNLDArgos–Shimano03:41:17  +  00:01:09=46,908 
25 COLNairo QuintanaESPMovistar Team03:41:17  +  00:01:09=46,908 
26 KENChristopher FroomeGBRSky Procycling03:41:17  +  00:01:09=46,908 
27 ITAMatteo TrentinBELOmega Pharma – Quick Step03:41:17  +  00:01:09=46,908 
28 AUSSimon GerransAUSOrica - GreenEDGE03:41:17  +  00:01:09=46,908 
29 BELMaxime MonfortLUXRadioShack Leopard03:41:17  +  00:01:09=46,908 
30 USAAndrew TalanskyUSAGarmin Sharp03:41:17  +  00:01:09=46,908 
31 ESPDaniel NavarroFRACofidis – Solutions Crédits03:41:17  +  00:01:09=46,908 
32 NORAlexander KristoffRUSTeam Katusha03:41:17  +  00:01:09=46,908 
33 FRAAmaël MoinardUSABMC Racing Team03:41:17  +  00:01:09=46,908 
34 ESPJoaquim RodriguezRUSTeam Katusha03:41:17  +  00:01:09=46,908 
35 ITAAlan MarangoniITACannondale Pro Cycling03:41:17  +  00:01:09=46,908 
36 GERMarcus BurghardtUSABMC Racing Team03:41:17  +  00:01:09=46,908 
37 NZLJack BauerUSAGarmin Sharp03:41:17  +  00:01:09=46,908 
38 SVKPeter VelitsBELOmega Pharma – Quick Step03:41:17  +  00:01:09=46,908 
39 FRAChristophe RiblonFRAAg2r La Mondiale03:41:17  +  00:01:09=46,908 
40 FRAJérôme PineauBELOmega Pharma – Quick Step03:41:17  +  00:01:09=46,908 
41 ITAManuel QuinziatoUSABMC Racing Team03:41:17  +  00:01:09=46,908 
42 ESPAlberto LosadaRUSTeam Katusha03:41:17  +  00:01:09=46,908 
43 FRAArnold JeannessonFRAFDJ.fr03:41:17  +  00:01:09=46,908 
44 GERMarcel SiebergBELLotto-Belisol Team03:41:17  +  00:01:09=46,908 
45 ITAFrancesco GavazziKAZAstana Pro Team03:41:17  +  00:01:09=46,908 
46 FRAArthur VichotFRAFDJ.fr03:41:17  +  00:01:09=46,908 
47 ESPJesus  HernandezDNKTeam Saxo-Tinkoff03:41:17  +  00:01:09=46,908 
48 USATejay Van GarderenUSABMC Racing Team03:41:17  +  00:01:09=46,908 
49 SUISteve MorabitoUSABMC Racing Team03:41:17  +  00:01:09=46,908 
50 FRAHubert DupontFRAAg2r La Mondiale03:41:17  +  00:01:09=46,908 
51 DENLars BakBELLotto-Belisol Team03:41:17  +  00:01:09=46,908 
52 FRASébastien MinardFRAAg2r La Mondiale03:41:17  +  00:01:09=46,908 
53 BELMaarten WynantsNLDBelkin Pro Cycling03:41:17  +  00:01:09=46,908 
54 NEDLars BoomNLDBelkin Pro Cycling03:41:17  +  00:01:09=46,908 
55 GERAndréas KlödenLUXRadioShack Leopard03:41:17  +  00:01:09=46,908 
56 NEDBram TankinkNLDBelkin Pro Cycling03:41:17  +  00:01:09=46,908 
57 URSRamunas NavardauskasUSAGarmin Sharp03:41:17  +  00:01:09=46,908 
58 GERTony MartinBELOmega Pharma – Quick Step03:41:45  +  00:01:37=46,809 
59 ENGIan StannardGBRSky Procycling03:42:02  +  00:01:54=46,750 
60 BLRAliaksandr KuchynskiRUSTeam Katusha03:42:22  +  00:02:14=46,680 
61 RUSPavel BruttRUSTeam Katusha03:42:23  +  00:02:15=46,676 
62 NEDTom LeezerNLDBelkin Pro Cycling03:42:42  +  00:02:34=46,610 
63 WALGeraint ThomasGBRSky Procycling03:42:47  +  00:02:39=46,592 
64 BELSep VanmarckeNLDBelkin Pro Cycling03:42:51  +  00:02:43=46,578 
65 BELFrederik WillemsBELLotto-Belisol Team03:43:40  +  00:03:32=46,408 
66 BLRKanstantin SivtsovGBRSky Procycling03:44:38  +  00:04:30=46,209 
67 NEDTom VeelersNLDArgos–Shimano03:45:37  +  00:05:29=46,007 
68 BELBart De ClercqBELLotto-Belisol Team03:45:37  +  00:05:29=46,007 
69 ESPJosé Joaquin RojasESPMovistar Team03:50:02  +  00:09:54=45,124 
70 ESPAlejandro ValverdeESPMovistar Team03:50:02  +  00:09:54=45,124 
71 LUXLaurent DidierLUXRadioShack Leopard03:50:02  +  00:09:54=45,124 
72 FRAMaxime MederelFRASojasun03:50:02  +  00:09:54=45,124 
73 ESPHaimar ZubeldiaLUXRadioShack Leopard03:50:02  +  00:09:54=45,124 
74 CANDavid VeilleuxFRATeam Europcar03:50:02  +  00:09:54=45,124 
75 FRAPierrick FédrigoFRAFDJ.fr03:50:02  +  00:09:54=45,124 
76 POLPrzemyslaw NiemiecITALampre-Merida03:50:02  +  00:09:54=45,124 
77 URSGatis SmukulisRUSTeam Katusha03:50:02  +  00:09:54=45,124 
78 AUSMatthew GossAUSOrica - GreenEDGE03:50:02  +  00:09:54=45,124 
79 RSADaryl ImpeyAUSOrica - GreenEDGE03:50:02  +  00:09:54=45,124 
80 BELKris BoeckmansNLDVacansoleil - DCM03:50:02  +  00:09:54=45,124 
81 ESPJuan José OrozESPEuskaltel - Euskadi03:50:02  +  00:09:54=45,124 
82 ESPMarkel IrizarLUXRadioShack Leopard03:50:02  +  00:09:54=45,124 
83 PORRui CostaESPMovistar Team03:50:02  +  00:09:54=45,124 
84 NEDBoy van PoppelNLDVacansoleil - DCM03:50:02  +  00:09:54=45,124 
85 BELJürgen RoelandtsBELLotto-Belisol Team03:50:02  +  00:09:54=45,124 
86 SLOKristjan KorenITACannondale Pro Cycling03:50:02  +  00:09:54=45,124 
87 ESPGorka Izaguirre InsaustiESPEuskaltel - Euskadi03:50:02  +  00:09:54=45,124 
88 GERJohannes FröhlingerNLDArgos–Shimano03:50:02  +  00:09:54=45,124 
89 GERJens VoigtLUXRadioShack Leopard03:50:02  +  00:09:54=45,124 
90 NEDRobert GesinkNLDBelkin Pro Cycling03:50:02  +  00:09:54=45,124 
91 FRAJulien SimonFRASojasun03:50:02  +  00:09:54=45,124 
92 FRAAlexis VuillermozFRASojasun03:50:02  +  00:09:54=45,124 
93 NEDTom DumoulinNLDArgos–Shimano03:50:02  +  00:09:54=45,124 
94 FRACyril LemoineFRASojasun03:50:02  +  00:09:54=45,124 
95 AUSAdam HansenBELLotto-Belisol Team03:50:02  +  00:09:54=45,124 
96 NEDRoy CurversNLDArgos–Shimano03:50:02  +  00:09:54=45,124 
97 ITADavide MalacarneFRATeam Europcar03:50:02  +  00:09:54=45,124 
98 CANSvein TuftAUSOrica - GreenEDGE03:50:02  +  00:09:54=45,124 
99 AUSRichie PorteGBRSky Procycling03:50:02  +  00:09:54=45,124 
100 USABrent BookwalterUSABMC Racing Team03:50:02  +  00:09:54=45,124 
101 BELPhilippe GilbertUSABMC Racing Team03:50:02  +  00:09:54=45,124 
102 NORLars Petter NordhaugNLDBelkin Pro Cycling03:50:02  +  00:09:54=45,124 
103 ITAFabio SabatiniITACannondale Pro Cycling03:50:02  +  00:09:54=45,124 
104 NEDWout PoelsNLDVacansoleil - DCM03:50:02  +  00:09:54=45,124 
105 FRAJulien El FarèsFRASojasun03:50:02  +  00:09:54=45,124 
106 JPNYukiya ArashiroFRATeam Europcar03:50:02  +  00:09:54=45,124 
107 ESPIgor AntonESPEuskaltel - Euskadi03:50:02  +  00:09:54=45,124 
108 USATom DanielsonUSAGarmin Sharp03:50:02  +  00:09:54=45,124 
109 ESPDavid LopezGBRSky Procycling03:50:02  +  00:09:54=45,124 
110 ESPMikel NieveESPEuskaltel - Euskadi03:50:02  +  00:09:54=45,124 
111 FRAChristophe Le MevelFRACofidis – Solutions Crédits03:50:02  +  00:09:54=45,124 
112 AUSStuart O'GradyAUSOrica - GreenEDGE03:50:02  +  00:09:54=45,124 
113 URSRein TaaramäeFRACofidis – Solutions Crédits03:50:02  +  00:09:54=45,124 
114 COLJosé SerpaITALampre-Merida03:50:02  +  00:09:54=45,124 
115 FRARudy MolardFRACofidis – Solutions Crédits03:50:02  +  00:09:54=45,124 
116 FRAPierre RollandFRATeam Europcar03:50:02  +  00:09:54=45,124 
117 FRACyril GautierFRATeam Europcar03:50:02  +  00:09:54=45,124 
118 ITAEnrico GasparottoKAZAstana Pro Team03:50:02  +  00:09:54=45,124 
119 ESPLuis Angel MateFRACofidis – Solutions Crédits03:50:02  +  00:09:54=45,124 
120 KAZAssan BazayevKAZAstana Pro Team03:50:13  +  00:10:05=45,088 
121 FRARomain BardetFRAAg2r La Mondiale03:50:15  +  00:10:07=45,081 
122 BELGert SteegmansBELOmega Pharma – Quick Step03:50:15  +  00:10:07=45,081 
123 NEDLieuwe WestraNLDVacansoleil - DCM03:50:15  +  00:10:07=45,081 
124 GERMarcel KittelNLDArgos–Shimano03:50:15  +  00:10:07=45,081 
125 ITARoberto FerrariITALampre-Merida03:50:15  +  00:10:07=45,081 
126 AUSBrett LancasterAUSOrica - GreenEDGE03:50:15  +  00:10:07=45,081 
127 NEDDanny van PoppelNLDVacansoleil - DCM03:50:19  +  00:10:11=45,068 
128 KAZAlexey LutsenkoKAZAstana Pro Team03:50:19  +  00:10:11=45,068 
129 ESPDaniel MorenoRUSTeam Katusha03:50:19  +  00:10:11=45,068 
130 FRAThibaut PinotFRAFDJ.fr03:50:19  +  00:10:11=45,068 
131 MLTDavid MillarUSAGarmin Sharp03:50:19  +  00:10:11=45,068 
132 RUSYury TrofimovRUSTeam Katusha03:50:19  +  00:10:11=45,068 
133 ITAManuele MoriITALampre-Merida03:50:19  +  00:10:11=45,068 
134 KAZDmitriy MuravyevKAZAstana Pro Team03:50:19  +  00:10:11=45,068 
135 FRAJohn GadretFRAAg2r La Mondiale03:50:19  +  00:10:11=45,068 
136 ESPJon Izaguirre InsaustiESPEuskaltel - Euskadi03:50:19  +  00:10:11=45,068 
137 ITADavide CimolaiITALampre-Merida03:50:19  +  00:10:11=45,068 
138 ESPJuan LobatoESPEuskaltel - Euskadi03:50:19  +  00:10:11=45,068 
139 GERSimon GeschkeNLDArgos–Shimano03:50:19  +  00:10:11=45,068 
140 ARGJuan Antonio FlechaNLDVacansoleil - DCM03:50:19  +  00:10:11=45,068 
141 ITAMoreno MoserITACannondale Pro Cycling03:50:19  +  00:10:11=45,068 
142 FRAAlexandre GeniezFRAFDJ.fr03:50:19  +  00:10:11=45,068 
143 FRAJean-Marc MarinoFRASojasun03:50:19  +  00:10:11=45,068 
144 UZBSergey LagutinNLDVacansoleil - DCM03:50:19  +  00:10:11=45,068 
145 RUSEduard VorganovRUSTeam Katusha03:50:19  +  00:10:11=45,068 
146 ITAAlessandro De MarchiITACannondale Pro Cycling03:50:19  +  00:10:11=45,068 
147 FRASamuel DumoulinFRAAg2r La Mondiale03:50:19  +  00:10:11=45,068 
148 BRAMurilo Antonio FischerFRAFDJ.fr03:50:27  +  00:10:19=45,042 
149 SUIMichael AlbasiniAUSOrica - GreenEDGE03:50:27  +  00:10:19=45,042 
150 FRAYohann GèneFRATeam Europcar03:50:27  +  00:10:19=45,042 
151 FRAJonathan HivertFRASojasun03:50:27  +  00:10:19=45,042 
152 FRAJérôme CousinFRATeam Europcar03:50:27  +  00:10:19=45,042 
153 FRAKévin RezaFRATeam Europcar03:50:31  +  00:10:23=45,029 
154 IOMPeter KennaughGBRSky Procycling03:50:31  +  00:10:23=45,029 
155 ESPRuben PerezESPEuskaltel - Euskadi03:51:55  +  00:11:47=44,757 
156 AUSCameron MeyerAUSOrica - GreenEDGE03:53:44  +  00:13:36=44,410 
157 ITADamiano CunegoITALampre-Merida03:53:44  +  00:13:36=44,410 
158 ESPRubén PlazaESPMovistar Team03:53:44  +  00:13:36=44,410 
159 NEDJohnny HoogerlandNLDVacansoleil - DCM03:53:44  +  00:13:36=44,410 
160 PORSergio PaulinhoDNKTeam Saxo-Tinkoff03:53:44  +  00:13:36=44,410 
161 BELThomas De GendtNLDVacansoleil - DCM03:53:44  +  00:13:36=44,410 
162 FRABlel KadriFRAAg2r La Mondiale03:53:44  +  00:13:36=44,410 
163 FRARomain SicardESPEuskaltel - Euskadi03:53:44  +  00:13:36=44,410 
164 ESPMikel AstarlozaESPEuskaltel - Euskadi03:53:44  +  00:13:36=44,410 
165 AUSSimon ClarkeAUSOrica - GreenEDGE03:53:44  +  00:13:36=44,410 
166 NZLGregory HendersonBELLotto-Belisol Team03:53:44  +  00:13:36=44,410 
167 FRAJérémy RoyFRAFDJ.fr03:53:44  +  00:13:36=44,410 
168 FRAThomas VoecklerFRATeam Europcar03:53:44  +  00:13:36=44,410 
169 FRAJérôme CoppelFRACofidis – Solutions Crédits03:53:44  +  00:13:36=44,410 
170 ESPImanol ErvitiESPMovistar Team03:53:44  +  00:13:36=44,410 
171 ESPEgoitz GarciaFRACofidis – Solutions Crédits03:53:44  +  00:13:36=44,410 
172 CANRyder HesjedalUSAGarmin Sharp03:53:44  +  00:13:36=44,410 
173 FRAGuillaume LevarletFRACofidis – Solutions Crédits03:53:44  +  00:13:36=44,410 
174 FRATony GallopinLUXRadioShack Leopard03:53:44  +  00:13:36=44,410 
175 NEDAlbert TimmerNLDArgos–Shimano03:53:44  +  00:13:36=44,410 
176 DENBrian VandborgITACannondale Pro Cycling03:53:44  +  00:13:36=44,410 
177 FRABrice FeilluFRASojasun03:53:44  +  00:13:36=44,410 
178 BELJan BakelantsLUXRadioShack Leopard03:53:44  +  00:13:36=44,410 
179 CRCAndrey AmadorESPMovistar Team03:53:44  +  00:13:36=44,410 
180 ITAElia FavilliITALampre-Merida03:53:44  +  00:13:36=44,410 
181 ESPJonathan CastroviejoESPMovistar Team03:53:44  +  00:13:36=44,410 

Withdrawls: 1
 
Rider
Team
Reason
2  NOREdvald Boasson HagenGBRSky ProcyclingDid not start

Todays birthdays.

1876  Hippolyte Aucouturier
1885  Ernesto Azzini
1939  Horst Oldenburg
1952  Gilbert Le Lay